Weather Roundup
Issued by NWS Chicago, IL

Home | Current Version | Previous Version | Graphics & Text | Print | Product List | Glossary On
Versions: 1 2 3 4 5 6 7 8 9 10 11 12 13 14 15 16 17 18 19 20 21 22 23 24 25 26 27 28 29 30 31 32 33 34 35 36 37 38 39 40 41 42 43 44 45 46 47 48 49 50
000
NZUS59 KLOT 170503
HRRLOT

CHICAGO AREA WEATHER ROUNDUP
NATIONAL WEATHER SERVICE CHICAGO/ROMEOVILLE IL
1100 PM CST SAT DEC 16 2017

NOTE: "FAIR" INDICATES FEW OR NO CLOUDS BELOW 12,000 FEET WITH NO
SIGNIFICANT WEATHER AND/OR OBSTRUCTIONS TO VISIBILITY.

* THESE STATIONS ARE NOT UNDER NWS QUALITY CONTROL. THEY ALSO MAY NOT
  REPORT WEATHER SUCH AS PRECIPITATION OR FOG.

ILZ005-006-012>014-019>023-170600-
NORTHEAST ILLINOIS

CITY           SKY/WX    TMP DP  RH WIND       PRES   REMARKS
OHARE          CLOUDY    32  30  92 N7        30.06S WCI  26
MIDWAY         CLOUDY    37  33  85 N3        30.07R
AURORA         CLOUDY    30  27  88 NE7       30.06R WCI  23
LANSING*       CLOUDY    25  23  91 CALM      30.07R
JOLIET*        CLOUDY    28  25  88 CALM      30.06S
WAUKEGAN       CLOUDY    32  31  96 NE6       30.09R FOG     WCI  26
DUPAGE AIRPORT CLOUDY    26  26 100 N7        30.05R FOG     WCI  18
WHEELING       CLOUDY    28  28 100 N6        30.08S WCI  22
NORTHERLY ISL    N/A     34  32  92 N3          N/A
$$

WIZ051-052-058>065-066-070>072-170600-
SOUTHEAST WISCONSIN

CITY           SKY/WX    TMP DP  RH WIND       PRES   REMARKS
MILWAUKEE      CLOUDY    35  32  88 E10       30.12R WCI  27
KENOSHA*       CLOUDY    36  32  85 NE10      30.10R
RACINE*        CLOUDY    35  32  88 E9        30.13R WCI  28
$$

INZ001>003-010>013-019-020-170600-
NORTHWEST INDIANA

CITY           SKY/WX    TMP DP  RH WIND       PRES   REMARKS
GARY*          CLOUDY    28  26  94 CALM      30.07S
MICHIGAN CITY* NOT AVBL
RENSSELAER*    NOT AVBL
VALPARAISO     CLOUDY    32  27  81 CALM      30.08R
$$

LMZ740>746-170600-
SOUTHERN LAKE MICHIGAN

STATION/POSITION TIME  SKY/WX   TEMP WIND        PRES    VSBY
                                AIR  DIR/SP/G
                 (UTC)          (F)  (DEG/KT/KT) (MB)    (MI)
HARRISON CRIB    0440            41   40/  8/  8   N/A
BURNHAM HARBOR   0500            35  350/  4/  4   N/A
CALUMET HARBOR   0430            35  340/  1/  2 1017.2S
BURNS HARBOR     0440            37  170/  4/  6 1018.6R
MICHIGAN CITY    0440            36  130/  3/  5   N/A
$$

ABBREVIATIONS USED IN REMARKS
   TC - TEMPERATURE IN CELSIUS
  WCI - WIND CHILL INDEX
   HX - HEAT INDEX
  VSB - VISIBILITY
$$




USA.gov is the U.S. government's official web portal to all federal, state and local government web resources and services.